This is the latest recevied weather packets stored in our database for station/object LU3MCV-13. If no packets are shown the sender has not sent any weather packets the latest 10 day(s).
| Time | Temp. | Humidity | Pressure | Rain* | Wind** | Luminosity | Snow |
|---|---|---|---|---|---|---|---|
| 1777796842 | 8.89° C | 23% | 934.6 hPa | - | - | - | - |
| 1777795942 | 8.89° C | 23% | 934.4 hPa | - | - | - | - |
| 1777795042 | 10° C | 20% | 934.6 hPa | - | - | - | - |
| 1777794142 | 10° C | 20% | 934.9 hPa | - | - | - | - |
| 1777793242 | 8.89° C | 22% | 935.1 hPa | - | - | - | - |
| 1777792342 | 10° C | 20% | 935.4 hPa | - | - | - | - |
| 1777791442 | 8.89° C | 22% | 935.6 hPa | - | - | - | - |
| 1777790542 | 8.89° C | 21% | 935.8 hPa | - | - | - | - |
| 1777789642 | 10° C | 20% | 936.1 hPa | - | - | - | - |
| 1777788742 | 10° C | 19% | 936.6 hPa | - | - | - | - |
| 1777787842 | 10° C | 18% | 936.9 hPa | - | - | - | - |
| 1777786942 | 11.11° C | 17% | 937.3 hPa | - | - | - | - |
| 1777786042 | 12.22° C | 17% | 937.3 hPa | - | - | - | - |
| 1777785142 | 11.11° C | 16% | 937.5 hPa | - | - | - | - |
| 1777784242 | 11.11° C | 16% | 937.6 hPa | - | - | - | - |
| 1777783342 | 11.11° C | 15% | 937.9 hPa | - | - | - | - |
| 1777782442 | 11.11° C | 16% | 938 hPa | - | - | - | - |
| 1777781542 | 11.11° C | 16% | 938.2 hPa | - | - | - | - |
| 1777780642 | 11.11° C | 16% | 938.2 hPa | - | - | - | - |
| 1777779742 | 11.11° C | 15% | 938.3 hPa | - | - | - | - |
| 1777778842 | 11.11° C | 15% | 938.7 hPa | - | - | - | - |
| 1777777942 | 11.11° C | 15% | 939 hPa | - | - | - | - |
| 1777777042 | 11.11° C | 15% | 939.4 hPa | - | - | - | - |
| 1777776142 | 11.11° C | 10% | 939.6 hPa | - | - | - | - |
| 1777775242 | 11.11° C | 10% | 939.9 hPa | - | - | - | - |
* Rain since midnight (hover to see other rain measurements)
** Current wind speed in m/s (hover to see current wind gust speed)